Flag for U.S.A. Weather past 2 weeks in Mason, Ohio, U.S.A.

Now
51 °F

Clear.


Feels Like: 51 °F
Forecast: 53 / 74 °F
Wind: No wind

Location: Butler County Regional Airport

Current Time: Jul 29, 2014 at 7:18:13 AM

Latest Report: Jul 29, 2014 at 6:53 AM


Visibility: 10 mi

Pressure: 30.03 "Hg

Humidity: 96%

Dew point: 50 °F

Location of MasonLocation

Historic Weather in Mason — Graph

°F

Mason temperature yesterday

Maximum temperature yesterday: 76 °F (at 2:53 PM)
Minimum temperature yesterday: 57 °F (at 11:53 PM)
Average temperature yesterday: 67 °F

Past Weeks' High & Low Weather Summary

 TemperatureHumidityPressure
High89 °F (Jul 22, 12:53 PM)100% (Jul 14, 6:02 AM)30.20 "Hg (Jul 14, 6:02 AM)
Low51 °F (Jul 29, 5:53 AM)39% (Jul 17, 5:53 PM)29.70 "Hg (Jul 27, 5:53 PM)
Average69 °F79%30.00 "Hg
* Reported Jul 14 5:53 AM — Jul 29 5:53 AM, Mason, Weather by CustomWeather, © 2014

Note: Actual official high and low records may vary slightly from our data, if they occured in-between our weather recording intervals... More about our weather records

Advertising

Mason weather history for previous 24 hours

 ConditionsComfort  
Time TempWeatherWind HumidityBarometerVisibility
5:53 AM
Jul 29
51 °FClear.3 mph96%30.03 "Hg10 mi
4:53 AM52 °FClear.3 mph93%30.01 "Hg10 mi
3:53 AM53 °FPassing clouds.No wind93%30.01 "Hg10 mi
3:00 AM54 °FPassing clouds.No wind93%30.03 "Hg10 mi
1:53 AM53 °FClear.No wind93%30.02 "Hg10 mi
12:53 AM55 °FClear.6 mph90%30.02 "Hg10 mi
11:53 PM
Jul 28
57 °FClear.3 mph83%30.01 "Hg10 mi
10:53 PM60 °FClear.7 mph78%30.02 "Hg10 mi
9:53 PM63 °FSunny.10 mph73%30.01 "Hg10 mi
8:53 PM66 °FSunny.10 mph70%29.99 "Hg10 mi
7:53 PM70 °FSunny.9 mph61%29.98 "Hg10 mi
6:53 PM73 °FSunny.15 mph55%29.96 "Hg10 mi
5:53 PM73 °FPassing clouds.14 mph55%29.96 "Hg10 mi
4:53 PM75 °FScattered clouds.13 mph58%29.96 "Hg10 mi
3:53 PM76 °FPassing clouds.7 mph60%29.95 "Hg10 mi
2:53 PM76 °FScattered clouds.8 mph62%29.95 "Hg10 mi
1:53 PM71 °FMore clouds than sun.7 mph71%29.96 "Hg10 mi
12:53 PM71 °FMostly cloudy.9 mph68%29.95 "Hg10 mi
11:53 AM69 °FOvercast.10 mph73%29.95 "Hg10 mi
10:53 AM69 °FOvercast.12 mph73%29.93 "Hg10 mi
10:01 AM68 °FMore clouds than sun.7 mph76%29.93 "Hg10 mi
9:03 AM66 °FOvercast.9 mph81%29.92 "Hg10 mi
8:53 AM66 °FOvercast.8 mph81%29.90 "Hg10 mi
7:53 AM64 °FOvercast.3 mph87%29.88 "Hg10 mi
Weather by CustomWeather, © 2014

See weather overviewHow to use our weather pages